Location: Sevilla
(37.3933°N, 5.9839°W)
Time: 14:08:24
(UTC+02:00)

A-11 Canister half - All Passes

Search period start: 21 June 2024 00:00
Search period end: 01 July 2024 00:00
Orbit: 1524 x 1683 km, 47.3° (Epoch: 20 June)

Date Brightness Start Highest point End Pass type
(mag) Time Alt. Az. Time Alt. Az. Time Alt. Az.
21 Jun - 00:47:46 10° WSW 00:50:24 11° WSW 00:53:03 10° SW visible
21 Jun - 13:53:58 10° SSW 14:02:54 47° SE 14:11:38 10° ENE daylight
21 Jun - 15:58:14 10° WSW 16:07:39 69° NNW 16:16:56 10° ENE daylight
21 Jun - 18:04:58 10° WNW 18:13:52 46° N 18:22:44 10° ENE daylight
21 Jun - 20:11:00 10° WNW 20:20:13 63° NNE 20:29:33 10° ESE daylight
21 Jun - 22:16:13 10° WNW 22:25:12 55° SW 22:34:24 10° SSE visible
22 Jun - 00:25:12 10° W 00:28:43 13° WSW 00:32:18 10° SW visible
22 Jun - 13:32:20 10° SSW 13:41:11 44° SE 13:49:50 10° ENE daylight
22 Jun - 15:36:24 10° WSW 15:45:52 72° NNW 15:55:10 10° ENE daylight
22 Jun - 17:43:08 10° WNW 17:52:02 46° N 18:00:54 10° ENE daylight
22 Jun - 19:49:14 10° WNW 19:58:26 61° NNE 20:07:42 10° ESE daylight
22 Jun - 21:54:26 10° WNW 22:03:29 58° SW 22:12:43 10° SE daylight
23 Jun - 00:02:51 10° W 00:07:03 14° WSW 00:11:19 10° SSW visible
23 Jun - 13:10:42 10° SSW 13:19:28 42° SE 13:28:01 10° ENE daylight
23 Jun - 15:14:35 10° WSW 15:24:04 74° NNW 15:33:25 10° ENE daylight
23 Jun - 17:21:17 10° WNW 17:30:12 46° N 17:39:04 10° ENE daylight
23 Jun - 19:27:27 10° WNW 19:36:38 59° NNE 19:45:52 10° E daylight
23 Jun - 21:32:39 10° WNW 21:41:45 61° SW 21:51:02 10° SE daylight
23 Jun - 23:40:36 10° W 23:45:23 15° WSW 23:50:13 10° SSW visible
24 Jun - 12:49:06 10° SSW 12:57:46 39° SE 13:06:13 10° ENE daylight
24 Jun - 14:52:46 10° WSW 15:02:18 77° NNW 15:11:39 10° ENE daylight
24 Jun - 16:59:25 10° WNW 17:08:22 47° N 17:17:15 10° ENE daylight
24 Jun - 19:05:41 10° WNW 19:14:50 58° NNE 19:24:01 10° E daylight
24 Jun - 21:10:53 10° WNW 21:20:02 64° SW 21:29:19 10° SE daylight
24 Jun - 23:18:28 10° W 23:23:42 16° SW 23:29:00 10° SSW visible
25 Jun - 12:27:29 10° SSW 12:36:03 37° SE 12:44:23 10° ENE daylight
25 Jun - 14:30:58 10° WSW 14:40:32 79° NNW 14:49:54 10° ENE daylight
25 Jun - 16:37:34 10° W 16:46:33 47° N 16:55:26 10° ENE daylight
25 Jun - 18:43:53 10° WNW 18:53:02 56° NNE 19:02:11 10° E daylight
25 Jun - 20:49:06 10° WNW 20:58:18 67° SW 21:07:37 10° SE daylight
25 Jun - 22:56:22 10° W 23:02:01 18° SW 23:07:44 10° SSW visible
26 Jun - 12:05:55 10° SSW 12:14:21 35° SE 12:22:33 10° ENE daylight
26 Jun - 14:09:09 10° WSW 14:18:45 82° NNW 14:28:08 10° ENE daylight
26 Jun - 16:15:42 10° W 16:24:43 47° N 16:33:37 10° ENE daylight
26 Jun - 18:22:06 10° WNW 18:31:13 55° NNE 18:40:20 10° E daylight
26 Jun - 20:27:20 10° WNW 20:36:34 71° SW 20:45:54 10° SE daylight
26 Jun - 22:34:20 10° W 22:40:20 19° SW 22:46:26 10° SSW visible
27 Jun - 11:44:21 10° S 11:52:38 33° SE 12:00:43 10° ENE daylight
27 Jun - 13:47:21 10° WSW 13:56:59 85° NNW 14:06:23 10° ENE daylight
27 Jun - 15:53:50 10° W 16:02:53 48° N 16:11:49 10° ENE daylight
27 Jun - 18:00:18 10° WNW 18:09:24 54° NNE 18:18:30 10° E daylight
27 Jun - 20:05:34 10° WNW 20:14:49 74° SW 20:24:10 10° SE daylight
27 Jun - 22:12:20 10° W 22:18:39 21° SW 22:25:05 10° S visible
28 Jun - 11:22:47 10° S 11:30:55 31° SE 11:38:51 10° ENE daylight
28 Jun - 13:25:33 10° WSW 13:35:13 88° NNW 13:44:37 10° ENE daylight
28 Jun - 15:31:58 10° W 15:41:03 49° N 15:50:01 10° ENE daylight
28 Jun - 17:38:31 10° WNW 17:47:36 53° NNE 17:56:39 10° E daylight
28 Jun - 19:43:48 10° WNW 19:53:05 77° SW 20:02:26 10° SE daylight
28 Jun - 21:50:21 10° W 21:56:59 22° SW 22:03:41 10° S daylight
29 Jun - 11:01:15 10° S 11:09:13 29° SE 11:16:58 10° ENE daylight
29 Jun - 13:03:46 10° SW 13:13:27 89° SE 13:22:52 10° ENE daylight
29 Jun - 15:10:06 10° W 15:19:14 49° NNW 15:28:13 10° ENE daylight
29 Jun - 17:16:42 10° WNW 17:25:47 52° NNE 17:34:48 10° E daylight
29 Jun - 19:22:02 10° WNW 19:31:20 80° SW 19:40:42 10° SE daylight
29 Jun - 21:28:24 10° WNW 21:35:17 24° SW 21:42:15 10° S daylight
30 Jun - 10:39:44 10° S 10:47:31 28° SE 10:55:05 10° ENE daylight
30 Jun - 12:41:58 10° SW 12:51:41 86° SE 13:01:07 10° ENE daylight
30 Jun - 14:48:13 10° W 14:57:24 50° NNW 15:06:24 10° ENE daylight
30 Jun - 16:54:53 10° WNW 17:03:58 51° NNE 17:12:57 10° E daylight
30 Jun - 19:00:16 10° WNW 19:09:35 83° SW 19:18:57 10° SE daylight
30 Jun - 21:06:28 10° WNW 21:13:36 25° SW 21:20:49 10° S daylight
